When you browse on this site, cookies collect data to enhance your experience and personalize the content and advertising you see.
Visit our Privacy Policy to learn more. By continuing to use the site, you agree to this use of cookies and data.
  • In Switzerland
  • List of Countries
  • For 7 days
  • Water Temperature
  • Weather Map
  • Weather Widgets
  • user-avatar
    Login

    Hourly Weather Chelmsford

    Today, 13 December, Friday

    Time Temperature Precipitation Wind Pressure Humidity
    00:00 +6°C° 0 mm 5 mps 725 mmHg 92%
    01:00 +6°C° 2 mm 5 mps 725 mmHg 93%
    02:00 +6°C° 2 mm 5 mps 725 mmHg 93%
    03:00 +6°C° 2 mm 5 mps 724 mmHg 93%
    04:00 +4°C° 1.2 mm 6 mps 725 mmHg 91%
    05:00 +4°C° 1.2 mm 7 mps 725 mmHg 90%
    06:00 +3°C° 0 mm 9 mps 726 mmHg 88%
    07:00 +3°C° 0.5 mm 9 mps 727 mmHg 87%
    08:00 +3°C° 0.5 mm 9 mps 728 mmHg 85%
    09:00 +4°C° 0.5 mm 8 mps 730 mmHg 84%
    10:00 +5°C° 0 mm 9 mps 731 mmHg 81%
    11:00 +5°C° 0 mm 9 mps 731 mmHg 79%
    12:00 +5°C° 0 mm 9 mps 732 mmHg 77%
    13:00 +5°C° 0 mm 9 mps 733 mmHg 76%
    14:00 +5°C° 0 mm 8 mps 733 mmHg 75%
    15:00 +5°C° 0 mm 8 mps 734 mmHg 74%
    16:00 +4°C° 0 mm 8 mps 734 mmHg 74%
    17:00 +4°C° 0 mm 7 mps 734 mmHg 75%
    18:00 +3°C° 0 mm 7 mps 735 mmHg 75%
    19:00 +3°C° 0 mm 7 mps 735 mmHg 76%
    20:00 +3°C° 0 mm 6 mps 734 mmHg 77%
    21:00 +2°C° 0 mm 5 mps 734 mmHg 78%
    22:00 +3°C° 0.4 mm 4 mps 734 mmHg 83%
    23:00 +3°C° 0.4 mm 3 mps 733 mmHg 88%

    Tomorrow, 14 December, Saturday

    Time Temperature Precipitation Wind Pressure Humidity
    00:00 +4°C° 0.4 mm 2 mps 732 mmHg 92%
    01:00 +4°C° 0.4 mm 3 mps 733 mmHg 90%
    02:00 +3°C° 0.4 mm 5 mps 733 mmHg 88%
    03:00 +3°C° 0.4 mm 7 mps 733 mmHg 86%
    04:00 +3°C° 0.1 mm 7 mps 734 mmHg 82%
    05:00 +2°C° 0.1 mm 8 mps 735 mmHg 77%
    06:00 +2°C° 0.1 mm 9 mps 737 mmHg 73%
    07:00 +1°C° 0 mm 9 mps 737 mmHg 71%
    08:00 +1°C° 0 mm 8 mps 738 mmHg 70%
    09:00 +2°C° 0 mm 7 mps 739 mmHg 69%
    10:00 +1°C° 0.3 mm 8 mps 739 mmHg 75%
    11:00 +1°C° 0.3 mm 8 mps 739 mmHg 81%
    12:00 +1°C° 0.3 mm 8 mps 740 mmHg 86%
    13:00 +2°C° 0 mm 8 mps 740 mmHg 80%
    14:00 +3°C° 0 mm 7 mps 741 mmHg 73%
    15:00 +3°C° 0 mm 6 mps 741 mmHg 67%
    16:00 +3°C° 0 mm 6 mps 741 mmHg 68%
    17:00 +2°C° 0 mm 6 mps 741 mmHg 69%
    18:00 +2°C° 0 mm 6 mps 741 mmHg 70%
    19:00 +3°C° 0.3 mm 7 mps 740 mmHg 76%
    20:00 +3°C° 0.3 mm 9 mps 739 mmHg 81%
    21:00 +5°C° 0.3 mm 10 mps 738 mmHg 87%
    22:00 +5°C° 0.4 mm 9 mps 737 mmHg 83%
    23:00 +5°C° 0.4 mm 9 mps 737 mmHg 80%

    Day after tomorrow, 15 December, Sunday

    Time Temperature Precipitation Wind Pressure Humidity
    00:00 +5°C° 0.4 mm 9 mps 737 mmHg 77%
    01:00 +3°C° 0 mm 9 mps 737 mmHg 74%
    02:00 +2°C° 0 mm 9 mps 738 mmHg 70%
    03:00 +2°C° 0 mm 9 mps 739 mmHg 67%
    04:00 +2°C° 0 mm 9 mps 740 mmHg 68%
    05:00 +2°C° 0 mm 9 mps 740 mmHg 68%
    06:00 +1°C° 0 mm 9 mps 741 mmHg 69%
    07:00 +1°C° 0 mm 8 mps 742 mmHg 70%
    08:00 +2°C° 0 mm 7 mps 743 mmHg 72%
    09:00 +2°C° 0 mm 7 mps 743 mmHg 73%
    10:00 +3°C° 0 mm 7 mps 744 mmHg 72%
    11:00 +4°C° 0 mm 7 mps 744 mmHg 71%
    12:00 +5°C° 0 mm 8 mps 744 mmHg 70%
    13:00 +5°C° 0.1 mm 8 mps 744 mmHg 70%
    14:00 +5°C° 0.1 mm 8 mps 744 mmHg 71%
    15:00 +5°C° 0.1 mm 8 mps 744 mmHg 71%
    16:00 +5°C° 0 mm 8 mps 745 mmHg 73%
    17:00 +4°C° 0 mm 7 mps 745 mmHg 75%
    18:00 +4°C° 0 mm 6 mps 745 mmHg 77%
    19:00 +4°C° 0 mm 6 mps 745 mmHg 79%
    20:00 +4°C° 0 mm 6 mps 746 mmHg 80%
    21:00 +4°C° 0 mm 6 mps 746 mmHg 82%
    22:00 +4°C° 0.1 mm 6 mps 746 mmHg 82%
    23:00 +5°C° 0.1 mm 5 mps 746 mmHg 83%

    16 December, Monday

    Time Temperature Precipitation Wind Pressure Humidity
    00:00 +6°C° 0.1 mm 5 mps 746 mmHg 84%
    01:00 +6°C° 0.2 mm 5 mps 746 mmHg 84%
    02:00 +6°C° 0.2 mm 5 mps 746 mmHg 84%
    03:00 +6°C° 0.2 mm 5 mps 746 mmHg 85%
    04:00 +6°C° 0.1 mm 5 mps 746 mmHg 86%
    05:00 +6°C° 0.1 mm 5 mps 745 mmHg 87%
    06:00 +6°C° 0.1 mm 4 mps 745 mmHg 88%
    07:00 +6°C° 0.1 mm 4 mps 746 mmHg 88%
    08:00 +6°C° 0.1 mm 4 mps 746 mmHg 88%
    09:00 +6°C° 0.1 mm 4 mps 746 mmHg 88%
    10:00 +6°C° 0.1 mm 4 mps 746 mmHg 85%
    11:00 +7°C° 0.1 mm 4 mps 746 mmHg 82%
    12:00 +8°C° 0.1 mm 4 mps 745 mmHg 79%
    13:00 +7°C° 0.1 mm 4 mps 745 mmHg 80%
    14:00 +8°C° 0.1 mm 3 mps 745 mmHg 81%
    15:00 +8°C° 0.1 mm 2 mps 745 mmHg 82%
    16:00 +7°C° 0 mm 2 mps 745 mmHg 84%
    17:00 +7°C° 0 mm 2 mps 745 mmHg 85%
    18:00 +7°C° 0 mm 2 mps 745 mmHg 87%
    19:00 +7°C° 0 mm 1 mps 745 mmHg 87%
    20:00 +7°C° 0 mm 1 mps 745 mmHg 87%
    21:00 +7°C° 0 mm 1 mps 745 mmHg 87%
    22:00 +7°C° 0.1 mm 1 mps 745 mmHg 87%
    23:00 +6°C° 0.1 mm 0 mps 745 mmHg 87%

    17 December, Tuesday

    Time Temperature Precipitation Wind Pressure Humidity
    00:00 +6°C° 0.1 mm 0 mps 745 mmHg 86%
    01:00 +6°C° 0.2 mm 0 mps 745 mmHg 87%
    02:00 +6°C° 0.2 mm 0 mps 745 mmHg 88%
    03:00 +7°C° 0.2 mm 1 mps 745 mmHg 89%
    04:00 +6°C° 0 mm 1 mps 746 mmHg 89%
    05:00 +6°C° 0 mm 1 mps 746 mmHg 89%
    06:00 +5°C° 0 mm 1 mps 746 mmHg 90%
    07:00 +5°C° 0 mm 1 mps 747 mmHg 90%
    08:00 +5°C° 0 mm 1 mps 748 mmHg 90%
    09:00 +5°C° 0 mm 1 mps 748 mmHg 90%
    10:00 +4°C° 0 mm 2 mps 749 mmHg 87%
    11:00 +5°C° 0 mm 2 mps 749 mmHg 84%
    12:00 +6°C° 0 mm 2 mps 749 mmHg 81%
    13:00 +5°C° 0 mm 2 mps 750 mmHg 82%
    14:00 +5°C° 0 mm 2 mps 750 mmHg 82%
    15:00 +5°C° 0 mm 2 mps 750 mmHg 83%
    16:00 +5°C° 0 mm 1 mps 751 mmHg 83%
    17:00 +5°C° 0 mm 1 mps 751 mmHg 84%
    18:00 +4°C° 0 mm 1 mps 752 mmHg 84%
    19:00 +4°C° 0 mm 1 mps 752 mmHg 84%
    20:00 +3°C° 0 mm 2 mps 753 mmHg 84%
    21:00 +3°C° 0 mm 2 mps 753 mmHg 84%
    22:00 +3°C° 0 mm 2 mps 753 mmHg 84%
    23:00 +2°C° 0 mm 2 mps 754 mmHg 85%

    18 December, Wednesday

    Time Temperature Precipitation Wind Pressure Humidity
    00:00 +2°C° 0 mm 2 mps 754 mmHg 86%
    01:00 +2°C° 0 mm 2 mps 754 mmHg 86%
    02:00 +2°C° 0 mm 2 mps 755 mmHg 85%
    03:00 +2°C° 0 mm 2 mps 755 mmHg 84%
    04:00 +2°C° 0 mm 2 mps 755 mmHg 82%
    05:00 +2°C° 0 mm 2 mps 755 mmHg 81%
    06:00 +2°C° 0 mm 2 mps 755 mmHg 79%
    07:00 +2°C° 0 mm 2 mps 755 mmHg 78%
    08:00 +2°C° 0 mm 3 mps 756 mmHg 78%
    09:00 +2°C° 0 mm 3 mps 756 mmHg 77%
    10:00 +3°C° 0 mm 3 mps 756 mmHg 78%
    11:00 +4°C° 0 mm 4 mps 756 mmHg 79%
    12:00 +6°C° 0 mm 4 mps 756 mmHg 80%
    13:00 +5°C° 0 mm 4 mps 756 mmHg 83%
    14:00 +5°C° 0 mm 4 mps 756 mmHg 86%
    15:00 +5°C° 0 mm 3 mps 756 mmHg 89%
    16:00 +4°C° 0 mm 3 mps 755 mmHg 91%
    17:00 +4°C° 0 mm 3 mps 755 mmHg 92%
    18:00 +3°C° 0 mm 3 mps 755 mmHg 93%
    19:00 +3°C° 0 mm 3 mps 755 mmHg 93%
    20:00 +3°C° 0 mm 3 mps 755 mmHg 93%
    21:00 +3°C° 0 mm 4 mps 755 mmHg 93%
    22:00 +3°C° 0 mm 4 mps 755 mmHg 92%
    23:00 +3°C° 0 mm 4 mps 754 mmHg 91%
    Show more